Flag for Germany Weather past 2 weeks in Wunstorf, Lower Saxony, Germany

Now
55 °F

Cool.


Feels Like: 55 °F
Forecast: 46 / 58 °F
Wind: 2 mph from West

Location: Wunstorf Airport

Current Time: May 25, 2015 at 8:06:52 AM

Latest Report: May 25, 2015 at 7:20 AM


Visibility: 6 mi

Pressure: 29.95 "Hg

Humidity: 77%

Dew point: 48 °F

Location of WunstorfLocation

Historic Weather in Wunstorf — Graph

°F

Wunstorf temperature yesterday

Maximum temperature yesterday: 55 °F (at 12:20 AM)
Minimum temperature yesterday: 55 °F (at 12:20 AM)
Average temperature yesterday: 55 °F

Past Weeks' High & Low Weather Summary

 TemperatureHumidityPressure
High77 °F (May 12, 1:20 PM)94% (May 16, 5:20 PM)30.33 "Hg (May 16, 5:20 PM)
Low37 °F (May 16, 4:20 AM)37% (May 10, 6:20 PM)29.59 "Hg (May 18, 8:20 PM)
Average54 °F66%30.06 "Hg
* Reported May 10 6:20 AM — May 25 6:20 AM, Wunstorf, Weather by CustomWeather, © 2015

Note: Actual official high and low records may vary slightly from our data, if they occured in-between our weather recording intervals... More about our weather records

Advertising

Wunstorf weather history for previous 24 hours

 ConditionsComfort  
Time TempWeatherWind HumidityBarometerVisibility
6:20 AM
Mon, May 25
55 °FCool.2 mph77%29.95 "HgN/A
5:20 AM55 °FCool.2 mph77%29.95 "HgN/A
4:20 AM55 °FCool.2 mph77%29.95 "HgN/A
3:20 AM55 °FCool.2 mph77%29.98 "HgN/A
2:20 AM55 °FCool.2 mph77%29.98 "HgN/A
1:20 AM55 °FCool.2 mph77%29.98 "HgN/A
12:20 AM55 °FCool.2 mph77%30.01 "HgN/A
11:20 PM
Sun, May 24
55 °FCool.2 mph77%30.01 "HgN/A
10:20 PM55 °FCool.2 mph77%30.01 "HgN/A
9:20 PM55 °FCool.2 mph77%30.01 "HgN/A
8:20 PM55 °FCool.2 mph77%30.01 "HgN/A
7:20 PM55 °FCool.2 mph77%30.01 "HgN/A
6:20 PM55 °FCool.2 mph77%30.04 "HgN/A
5:20 PM55 °FCool.2 mph77%30.04 "HgN/A
4:20 PM55 °FCool.2 mph77%30.07 "HgN/A
3:20 PM55 °FCool.2 mph77%30.07 "HgN/A
2:20 PM55 °FCool.2 mph77%30.09 "HgN/A
1:20 PM55 °FCool.2 mph77%30.09 "HgN/A
12:20 PM55 °FCool.2 mph77%30.12 "HgN/A
11:20 AM55 °FCool.2 mph77%30.12 "HgN/A
10:20 AM55 °FCool.2 mph77%30.15 "HgN/A
9:20 AM55 °FCool.2 mph77%30.15 "HgN/A
8:20 AM55 °FCool.2 mph77%30.15 "HgN/A
Weather by CustomWeather, © 2015

See weather overviewHow to use our weather pages